Beidou DW 58

operational
NORAD ID: 58654 Int'l Des: 2023-207 Owner: CNSA Country: CN Constellation: BeiDou
MEOCIRCULAR

About Beidou DW 58

Description loading...

Live Position

Loading 3D Globe...

Upcoming Passes

Altitude History

Altitude vs Time

uPlot chart will show altitude changes over time

Two-Line Element Set

1 58654U 23207A 25294.89013286 -.00000040 00000-0 00000+0 0 9995
2 58654 55.5396 70.3560 0000510 226.4348 133.5410 1.86229844 12407
Epoch: Oct 21, 2025 • Age: 96 hours

Current Status

Altitude 21527.3 km
Velocity 3.78 km/s
Sub-Earth Point 14.78°N, 115.28°W
Launch Date Dec 26, 2019
Age 5.8 years
Type navigation

Technical Details

Classification Payload
Mass 1014.00 kg
Dry Mass 850.00 kg
Total Mass 1014.00 kg
Length 2.20 m
Diameter 1.70 m
Span 10.00 m
Shape Box + 2 Pan
Manufacturer CAST
Bus Type BD-3M
Phase Status In Orbit
Owner/State CNSA/CN

Large Constellations

Loading constellations...